Regional Weather Roundup
Issued by NWS

Home | Current Version | Previous Version | Graphics & Text | Print | Product List | Glossary On
Versions: 1 2 3 4 5 6 7 8 9 10 11 12 13 14 15 16 17 18 19 20 21 22 23 24 25 26 27 28 29 30 31 32 33 34 35 36 37 38 39 40 41 42 43 44 45 46 47 48 49 50
000
ASUS45 KTFX 260204
RWRMT
MONTANA HOURLY WEATHER ROUNDUP
NATIONAL WEATHER SERVICE GREAT FALLS MT
704 PM MST SUN JAN 25 2015

NOTE: "FAIR" INDICATES FEW OR NO CLOUDS BELOW 12000 FEET WITH NO
SIGNIFICANT WEATHER AND/OR OBSTRUCTIONS TO VISIBILITY.

* THESE STATIONS ARE NOT UNDER NWS QUALITY CONTROL. THEY DO NOT
   REPORT WEATHER SUCH AS PRECIPITATION OR FOG.

MTZ001>007-043-260300-
WEST OF THE DIVIDE
CITY           SKY/WX    TMP DP  RH WIND       PRES   REMARKS
KALISPELL      MOCLDY    34  32  92 CALM      30.17S
MISSOULA       CLEAR     37  34  89 NE3       30.23R
BUTTE          PTCLDY    43  27  53 E3        30.30R
MULLAN PASS    CLEAR     41  28  60 S7        30.26R
* ANACONDA     PTCLDY    48  27  44 S11        N/A
* ESSEX        N/A       33  32  96 W1         N/A
* LINCOLN      N/A       48  28  46 S4G10      N/A
* LOOKOUT PASS N/A       38  33  82 SE1        N/A
* POLSON       N/A       45  32  60 SE2        N/A
* RONAN APT    PTCLDY    41  41 100 NE6        N/A
* SEELEY LAKE  N/A       37  29  73 E2G8       N/A
* THOMP F APT  CLEAR     28  26  92 NE3        N/A
* YAAK HILL    N/A       40  38  93 NE1        N/A
$$

MTZ008-052>055-260300-
SOUTHWEST MONTANA
CITY           SKY/WX    TMP DP  RH WIND       PRES   REMARKS
BOZEMAN        CLOUDY    36  30  79 VRB5      30.24R WCI  32
DILLON         PTCLDY    46  27  48 S13       30.31R
* W YELLOWSTON CLOUDY    31  29  92 SW2        N/A
* THREE FORKS  MOCLDY    41  34  76 N/A        N/A
* BOULDER HILL N/A       49  24  38 S4G9       N/A
* MONIDA PASS  N/A       26  26 100 SE17       N/A   WCI  13
* RAYNOLDS PAS N/A       30  11  45 SE26       N/A   WCI  16
* WHITEHALL    N/A       54  27  35 W11G24     N/A
* WISE RIVER   N/A       44  26  49 W8G20      N/A
$$

MTZ009>010-012-014-046-048-049-054-260300-
EAST SLOPES AND CENTRAL MONTANA
CITY           SKY/WX    TMP DP  RH WIND       PRES   REMARKS
CUT BANK       CLOUDY    46  30  54 W22       30.02R
GREAT FALLS    CLOUDY    52  30  43 SW21      30.06S
HELENA         MOCLDY    46  30  54 CALM      30.20R
MALMSTROM AFB  CLOUDY    54  30  40 SW21      30.08R
* DEARBORN     N/A       60  28  30 S8G23      N/A
* EAST GLACIER N/A       47  28  48 SW17G23    N/A
* MONARCH      N/A       48  23  37 SW13       N/A
* PENDROY      N/A       49  29  46 N2G12      N/A
* ROGERS PASS  N/A       46  25  44 E10G23     N/A
* SWEET GRASS  N/A       49  31  50 W25G30     N/A
$$

MTZ011-013-016-021-035-040-045-047-050-051-260300-
NORTH CENTRAL MONTANA
CITY           SKY/WX    TMP DP  RH WIND       PRES   REMARKS
HAVRE          MOCLDY    46  34  63 SW10      29.94R
LEWISTOWN      CLOUDY    45  30  56 SW23      30.04R
* N BAR RANCH  CLEAR     55  28  35 NW31G45   29.98S
* CHESTER      N/A       48  33  56 S2G7       N/A
* DENTON       N/A       49  29  46 W23G31     N/A
* GEYSER       N/A       54  27  35 SW20G28    N/A
* JUDITH GAP   N/A       49  28  44 SW15G21    N/A
* LOMA         N/A       51  35  54 SW20G27    N/A
$$

MTZ017>020-022>027-061-062-260300-
NORTHEAST MONTANA
CITY           SKY/WX    TMP DP  RH WIND       PRES   REMARKS
GLASGOW        CLEAR     41  34  76 W7        29.89R
GLENDIVE       CLEAR     41  36  82 W10       29.90R
JORDAN         PTCLDY    39  34  82 W3        29.92R
SIDNEY         PTCLDY    37  34  89 SE9       29.85S WCI  30
WOLF POINT     CLEAR     39  34  82 W6        29.87R WCI  35
* BEAVER HILL  N/A       41  35  79 SW14       N/A
* CIRCLE       N/A       44  39  83 W3G9       N/A
* LINDSAY DVD  N/A       46  37  71 W17        N/A
* NAVAJO       N/A       43  35  73 NW18G25    N/A
* SACO         N/A       40  34  79 W8         N/A   WCI  35
$$

MTZ028>042-056>058-260300-
SOUTHCENTRAL AND SOUTHEAST MONTANA
CITY           SKY/WX    TMP DP  RH WIND       PRES   REMARKS
BAKER          CLEAR     41  34  76 W15       29.92R
BILLINGS       CLOUDY    55  28  35 SW17G24   30.04R
LIVINGSTON     CLOUDY    55  25  31 SW26G36   30.17R
MILES CITY     PTCLDY    43  34  71 NW6       29.94R
* LAUREL APT   CLOUDY    61  27  27 W21G31     N/A
* ROUNDUP APT  CLOUDY    57  27  32 SW23G33    N/A
* ALZADA       N/A       43  33  68 SW11G16    N/A
* HYSHAM       N/A       49  27  43 SW1        N/A
* LAME DEER    N/A       48  31  52 W12G17     N/A
* REED POINT   N/A       59  30  33 W21G30     N/A
* ROSCOE HILL  N/A       58  15  18 W7G17      N/A
$$

REGIONAL REPORTS...DAKOTAS
CITY           SKY/WX    TMP DP  RH WIND       PRES   REMARKS
WILLISTON      MOCLDY    39  34  82 SW9       29.80R WCI  33
DICKINSON      MOCLDY    43  34  71 W14       29.81F
CROSBY         CLEAR     39  36  89 W22G30    29.74S WCI  29
WATFORD CITY   CLEAR     37  32  82 SW13      29.79R WCI  29
BISMARCK       CLOUDY    36  32  85 S3        29.84F
GRAND FORKS    CLOUDY    27  19  72 S15       29.85F WCI  15
FARGO          CLOUDY    27  19  72 S12       29.92F WCI  16
BUFFALO SD     PTCLDY    39  34  82 W12       29.85F WCI  32
RAPID CITY     CLEAR     36  21  54 CALM      29.96R
$$

REGIONAL REPORTS...WYOMING/IDAHO/WASHINGTON
CITY           SKY/WX    TMP DP  RH WIND       PRES   REMARKS
GILLETTE       PTCLDY    43  30  60 W12       30.05R
SHERIDAN       CLEAR     43  28  56 S6        30.04S
CODY           CLOUDY    55  25  31 W13G20    30.16R
YELLOWSTONE LA CLOUDY    30  27  89 VRB3      30.45R
SALMON         MOCLDY    27  23  85 SE3       30.40R
MULLAN PASS    CLEAR     41  28  60 S7        30.26S
SAND POINT     FOG       36  36 100 CALM      30.21F VSB 1/2
SPOKANE        FOG       41  41 100 N7        30.19S VSB M1/4

$$



USA.gov is the U.S. government's official web portal to all federal, state and local government web resources and services.